VK4SSH Weather Reports


time (UTC)temp
C
wind
direction
speed
KPH
gust
KPH
rain 1hr
cm
rain 24hr
cm
rain mn
cm
humidity
%
barometer
mb
20260510033521 25 211 0.0 3.2 0.00 0.00 0.00 59
20260510032521 24 158 1.6 8.0 0.00 0.00 0.00 61
20260510031521 24 184 3.2 8.0 0.00 0.00 0.00 61
20260510030521 24 151 3.2 9.7 0.00 0.00 0.00 60
20260510025521 23 159 3.2 9.7 0.00 0.00 0.00 61
20260510024521 24 134 3.2 9.7 0.00 0.00 0.00 62
20260510023521 23 130 3.2 8.0 0.00 0.00 0.00 61
20260510022521 23 147 3.2 9.7 0.00 0.00 0.00 63
20260510021521 23 160 4.8 8.0 0.00 0.00 0.00 64
20260510020521 23 147 4.8 9.7 0.00 0.00 0.00 64
20260510015521 23 135 3.2 12.9 0.00 0.00 0.00 64
20260510014521 23 135 4.8 12.9 0.00 0.00 0.00 64
20260510013521 23 141 4.8 9.7 0.00 0.00 0.00 64
20260510012521 23 167 4.8 11.3 0.00 0.00 0.00 64
20260510011521 23 154 4.8 8.0 0.00 0.00 0.00 63
20260510010522 23 151 3.2 8.0 0.00 0.00 0.00 65
20260510005521 22 148 4.8 11.3 0.00 0.00 0.00 65
20260510004521 22 138 4.8 9.7 0.00 0.00 0.00 66
20260510003521 22 151 4.8 9.7 0.00 0.00 0.00 65
20260510002533 22 139 6.4 14.5 0.00 0.00 0.00 66
20260510001521 22 166 3.2 8.0 0.00 0.00 0.00 64
20260510000521 21 149 4.8 8.0 0.00 0.00 0.00 66
20260509235521 22 156 4.8 9.7 0.00 0.00 0.00 66
20260509234521 21 199 1.6 3.2 0.00 0.00 0.00 66
20260509233521 21 144 3.2 8.0 0.00 0.00 0.00 67
20260509232533 21 172 3.2 9.7 0.00 0.00 0.00 67
20260509231521 21 177 3.2 9.7 0.00 0.00 0.00 68
20260509230521 20 127 3.2 9.7 0.00 0.00 0.00 68
20260509225521 20 145 3.2 8.0 0.00 0.00 0.00 68
20260509224521 20 151 4.8 9.7 0.00 0.00 0.00 69
20260509223521 19 132 3.2 8.0 0.00 0.00 0.00 70
20260509222521 19 171 1.6 8.0 0.00 0.00 0.00 71
20260509221521 18 120 3.2 8.0 0.00 0.00 0.00 72
20260509220521 18 155 3.2 4.8 0.00 0.00 0.00 72
20260509215533 17 180 1.6 4.8 0.00 0.00 0.00 74
20260509214521 17 147 3.2 6.4 0.00 0.00 0.00 74
20260509213521 17 157 3.2 8.0 0.00 0.00 0.00 73
20260509212521 17 135 0.0 3.2 0.00 0.00 0.00 74
20260509211521 16 338 0.0 3.2 0.00 0.00 0.00 74
20260509210521 16 338 0.0 3.2 0.00 0.00 0.00 74
20260509205521 16 338 0.0 3.2 0.00 0.00 0.00 75
20260509204521 16 338 0.0 3.2 0.00 0.00 0.00 74
20260509203533 15 338 0.0 3.2 0.00 0.00 0.00 76
20260509202521 15 338 0.0 6.4 0.00 0.00 0.00 79
20260509201533 16 135 0.0 3.2 0.00 0.00 0.00 75
20260509200521 16 104 0.0 3.2 0.00 0.00 0.00 73
20260509195521 16 338 0.0 3.2 0.00 0.00 0.00 74
20260509194521 15 338 0.0 1.6 0.00 0.00 0.00 75
20260509193521 15 338 0.0 3.2 0.00 0.00 0.00 76
20260509192521 16 345 0.0 3.2 0.00 0.00 0.00 76
20260509191521 16 329 1.6 4.8 0.00 0.00 0.00 76
20260509190521 15 338 1.6 3.2 0.00 0.00 0.00 77
20260509185521 15 195 1.6 3.2 0.00 0.00 0.00 79
20260509184521 15 7 1.6 3.2 0.00 0.00 0.00 81
20260509183521 15 167 1.6 3.2 0.00 0.00 0.00 80
20260509182521 15 98 1.6 3.2 0.00 0.00 0.00 80
20260509181521 15 151 1.6 3.2 0.00 0.00 0.00 81
20260509180521 15 90 0.0 3.2 0.00 0.00 0.00 82
20260509175533 14 338 0.0 1.6 0.00 0.00 0.00 84
20260509174521 13 0.0 0.0 0.00 0.00 0.00 89
20260509173521 13 0.0 0.0 0.00 0.00 0.00 91
20260509172521 13 0.0 0.0 0.00 0.00 0.00 91
20260509171521 13 0.0 0.0 0.00 0.00 0.00 89
20260509170521 13 0.0 0.0 0.00 0.00 0.00 89
20260509165521 13 0.0 0.0 0.00 0.00 0.00 90
20260509164521 13 0.0 0.0 0.00 0.00 0.00 91
20260509163521 13 0.0 0.0 0.00 0.00 0.00 91
20260509162521 13 338 0.0 1.6 0.00 0.00 0.00 90
20260509161521 12 338 0.0 1.6 0.00 0.00 0.00 91
20260509160521 12 0.0 0.0 0.00 0.00 0.00 93
20260509155521 12 0.0 0.0 0.00 0.00 0.00 93
20260509154521 12 0.0 0.0 0.00 0.00 0.00 94
20260509153521 12 338 0.0 3.2 0.00 0.00 0.00 94
20260509152521 12 338 0.0 1.6 0.00 0.00 0.00 93
20260509151521 12 0.0 0.0 0.00 0.00 0.00 92
20260509150521 13 0.0 0.0 0.00 0.00 0.00 92
20260509145521 13 0.0 0.0 0.00 0.00 0.00 91
20260509144521 13 0.0 0.0 0.00 0.00 0.00 91
20260509143521 14 0.0 0.0 0.00 0.00 0.00 89
20260509142521 14 338 0.0 3.2 0.00 0.00 0.00 88
20260509141521 14 338 0.0 3.2 0.00 0.00 0.00 88
20260509140521 14 338 0.0 3.2 0.00 0.00 0.00 88
20260509135521 14 338 0.0 1.6 0.00 0.00 0.00 88
20260509134521 14 338 1.6 3.2 0.00 0.00 0.00 89
20260509133521 14 338 1.6 3.2 0.00 0.00 0.00 89
20260509132521 14 338 1.6 4.8 0.00 0.00 0.00 88
20260509131521 14 338 1.6 3.2 0.00 0.00 0.00 87
20260509130521 15 338 0.0 1.6 0.00 0.00 0.00 87
20260509125521 15 0.0 0.0 0.00 0.00 0.00 85
20260509124521 15 338 0.0 3.2 0.00 0.00 0.00 84
20260509123521 15 0.0 0.0 0.00 0.00 0.00 84
20260509122521 15 338 0.0 1.6 0.00 0.00 0.00 83
20260509121521 15 338 0.0 1.6 0.00 0.00 0.00 83
20260509120521 15 338 0.0 1.6 0.00 0.00 0.00 83
20260509115521 15 338 0.0 1.6 0.00 0.00 0.00 83
20260509114521 15 338 0.0 3.2 0.00 0.00 0.00 82
20260509113521 15 338 1.6 3.2 0.00 0.00 0.00 83
20260509112521 15 338 1.6 3.2 0.00 0.00 0.00 83
20260509111521 15 0.0 0.0 0.00 0.00 0.00 83
20260509110521 15 225 0.0 3.2 0.00 0.00 0.00 83
20260509105521 15 202 0.0 3.2 0.00 0.00 0.00 83
20260509104521 15 202 0.0 1.6 0.00 0.00 0.00 85
20260509103521 15 0.0 0.0 0.00 0.00 0.00 86
20260509102521 15 202 0.0 1.6 0.00 0.00 0.00 86
20260509101521 15 202 0.0 1.6 0.00 0.00 0.00 85
20260509100521 15 202 0.0 3.2 0.00 0.00 0.00 85
20260509095521 15 0.0 0.0 0.00 0.00 0.00 83
20260509094520 15 0.0 0.0 0.00 0.00 0.00 84
20260509093521 15 0.0 0.0 0.00 0.00 0.00 83
20260509092521 16 0.0 0.0 0.00 0.00 0.00 83
20260509091521 16 0.0 0.0 0.00 0.00 0.00 82
20260509090521 16 0.0 0.0 0.00 0.00 0.00 81
20260509085521 16 0.0 0.0 0.00 0.00 0.00 81
20260509084521 16 0.0 0.0 0.00 0.00 0.00 79
20260509083521 17 202 0.0 1.6 0.00 0.00 0.00 78
20260509082521 17 0.0 0.0 0.00 0.00 0.00 77
20260509081521 17 202 0.0 1.6 0.00 0.00 0.00 74
20260509080533 18 0.0 0.0 0.00 0.00 0.00 73
20260509075521 18 0.0 0.0 0.00 0.00 0.00 70
20260509074521 18 0.0 0.0 0.00 0.00 0.00 68
20260509073520 19 202 0.0 1.6 0.00 0.00 0.00 66
20260509072521 20 0.0 0.0 0.00 0.00 0.00 63 1020.1
20260509065021 21 135 0.0 1.6 0.00 0.00 0.00 57
20260509064020 21 135 0.0 3.2 0.00 0.00 0.00 57 1020.1
20260509063520 21 0.0 0.0 0.00 0.00 0.00 56
20260509062520 21 116 1.6 3.2 0.00 0.00 0.00 57
20260509061520 21 123 0.0 8.0 0.00 0.00 0.00 59
20260509060521 21 0.0 0.0 0.00 0.00 0.00 58
20260509055520 21 112 0.0 3.2 0.00 0.00 0.00 59
20260509054520 22 112 0.0 8.0 0.00 0.00 0.00 56
20260509053520 23 338 0.0 1.6 0.00 0.00 0.00 54
20260509052520 23 278 0.0 4.8 0.00 0.00 0.00 52
20260509051520 23 182 1.6 8.0 0.00 0.00 0.00 50
20260509050520 24 174 3.2 9.7 0.00 0.00 0.00 49
20260509045520 24 333 1.6 6.4 0.00 0.00 0.00 49
20260509044520 23 0.0 0.0 0.00 0.00 0.00 49
20260509043520 22 0.0 0.0 0.00 0.00 0.00 50
20260509042520 22 137 1.6 8.0 0.00 0.00 0.00 50
20260509041520 22 146 3.2 8.0 0.00 0.00 0.00 52
20260509040520 22 202 0.0 1.6 0.00 0.00 0.00 52
20260509035520 22 295 0.0 3.2 0.00 0.00 0.00 52
20260509034520 22 210 0.0 3.2 0.00 0.00 0.00 53